Weather History for Hyannis, MA

Change the Weather History Date:

Wednesday, December 26, 2012

  Actual Average Record
Temperature  
Mean Temperature 36 °F -  
Max Temperature 39 °F 41 °F 57 °F (1982)
Min Temperature 34 °F 22 °F -2 °F (1968)
Degree Days  
Heating Degree Days 28    
Moisture  
Dew Point 29 °F    
Average Humidity 73    
Maximum Humidity 93    
Minimum Humidity 61    
Precipitation  
Precipitation 0.28 in - - ()
Sea Level Pressure  
Sea Level Pressure 30.16 in    
Wind  
Wind Speed 10 mph (NE)    
Max Wind Speed 16 mph    
Max Gust Speed 29 mph    
Visibility 9 miles    
Events Rain    
Averages and records for this station are not official NWS values.
T = Trace of Precipitation, MM = Missing Value Source: NWS Daily Summary

Daily Weather History Graph

Daily Weather History Graph

Search for Another Location

Airport:

Trip Planner

Search our weather history database for the weather conditions in past years. The results will help you decide how hot, cold, wet, or windy it might be!

Date:

Astronomy

Dec. 26, 2012 Rise Set
Actual Time 7:06 AM EST 4:17 PM EST
Civil Twilight 6:35 AM EST 4:48 PM EST
Nautical Twilight 6:00 AM EST 5:23 PM EST
Astronomical Twilight 5:26 AM EST 5:57 PM EST
Moon 3:08 PM EST (12/26) 5:27 AM EST (12/26)
Length of Visible Light 10h 13m
Length of Day
9h 10m
Waxing Gibbous, 97% of the Moon is Illuminated
Dec 26
Waxing Gibbous
Dec 28
Full
Jan 4
Last Quarter
Jan 11
New
Jan 18
First Quarter

Hourly Weather History & Observations

Time (EST) Temp. Windchill Dew Point Humidity Pressure Visibility Wind Dir Wind Speed Gust Speed Precip Events Conditions
12:56 AM 37.0 °F 29.8 °F 30.0 °F 76% 30.18 in 10.0 mi North 10.4 mph - N/A   Overcast
1:08 AM 37.4 °F 31.4 °F 30.2 °F 75% 30.18 in 10.0 mi North 8.1 mph 17.3 mph N/A   Overcast
1:56 AM 36.0 °F 31.1 °F 30.0 °F 79% 30.20 in 10.0 mi NNW 5.8 mph - N/A   Scattered Clouds
2:56 AM 34.0 °F 27.2 °F 28.9 °F 82% 30.22 in 10.0 mi North 8.1 mph - N/A   Clear
4:56 AM 34.0 °F 25.5 °F 26.1 °F 73% 30.22 in 10.0 mi North 11.5 mph - N/A   Partly Cloudy
5:56 AM 34.0 °F 26.0 °F 25.0 °F 70% 30.21 in 10.0 mi NNE 10.4 mph - N/A   Clear
7:56 AM 34.0 °F - 27.0 °F 75% 30.27 in 10.0 mi Calm Calm - N/A   Clear
8:56 AM 37.9 °F 32.1 °F 27.0 °F 65% 30.26 in 10.0 mi NE 8.1 mph - N/A   Clear
9:56 AM 39.0 °F 32.8 °F 27.0 °F 62% 30.27 in 10.0 mi NE 9.2 mph - N/A   Partly Cloudy
10:56 AM 39.9 °F 32.1 °F 28.0 °F 63% 30.25 in 10.0 mi NE 13.8 mph - N/A   Mostly Cloudy
11:28 AM 39.2 °F 33.0 °F 26.6 °F 61% 30.23 in 10.0 mi NE 9.2 mph - N/A   Scattered Clouds
11:39 AM 39.2 °F 30.8 °F 28.4 °F 65% 30.21 in 10.0 mi NNE 15.0 mph - N/A   Mostly Cloudy
11:51 AM 39.2 °F 31.2 °F 26.6 °F 61% 30.20 in 10.0 mi NNE 13.8 mph - N/A   Scattered Clouds
11:56 AM 39.0 °F 32.3 °F 27.0 °F 62% 30.20 in 10.0 mi NE 10.4 mph - N/A   Scattered Clouds
12:56 PM 39.0 °F 31.4 °F 27.0 °F 62% 30.20 in 10.0 mi NE 12.7 mph - N/A   Scattered Clouds
1:35 PM 37.4 °F 30.8 °F 28.4 °F 70% 30.20 in 10.0 mi NNE 9.2 mph - N/A   Mostly Cloudy
1:56 PM 37.9 °F 31.5 °F 28.0 °F 68% 30.22 in 10.0 mi NE 9.2 mph - N/A   Mostly Cloudy
2:56 PM 37.9 °F 32.1 °F 28.0 °F 68% 30.19 in 10.0 mi ENE 8.1 mph - N/A   Mostly Cloudy
3:56 PM 37.0 °F 31.0 °F 28.9 °F 73% 30.18 in 10.0 mi ENE 8.1 mph - N/A   Overcast
4:56 PM 37.9 °F 33.5 °F 30.0 °F 73% 30.16 in 10.0 mi ENE 5.8 mph - N/A   Overcast
5:56 PM 37.9 °F 32.7 °F 30.9 °F 76% 30.14 in 10.0 mi ENE 6.9 mph - N/A   Overcast
6:56 PM 39.0 °F 33.4 °F 30.9 °F 73% 30.12 in 10.0 mi East 8.1 mph 16.1 mph N/A   Overcast
7:56 PM 39.0 °F 31.8 °F 32.0 °F 76% 30.07 in 10.0 mi East 11.5 mph 18.4 mph N/A   Overcast
8:56 PM 37.9 °F 29.2 °F 34.0 °F 86% 30.01 in 5.0 mi East 15.0 mph 26.5 mph 0.04 in Rain Light Rain
9:56 PM 37.9 °F 31.5 °F 35.1 °F 89% 29.98 in 5.0 mi East 9.2 mph 24.2 mph 0.10 in Rain Rain
10:56 PM 37.9 °F 30.0 °F 36.0 °F 93% 29.93 in 5.0 mi East 12.7 mph 20.7 mph 0.05 in Rain Light Rain
11:56 PM 37.9 °F 28.9 °F 36.0 °F 93% 29.85 in 5.0 mi East 16.1 mph 28.8 mph 0.09 in Rain Light Rain